Content
SEND FEEDBACK

Daily
Averages
Monthly
Summary
United States of America

MOLINA, COLORADO


Home > North America > United States > Colorado
Elevation: 6134 feet     Latitude: 39 14N     Longitude: 107 58W

WEATHER
 
SELECT A DAY
Number of Records: 172,300;   Date Range: 1/1/95 - 8/30/14
 
SHARE

PRINT THIS DATA

[ ← Previous Day ]
WEATHER ALMANAC - JANUARY 31, 2013
[ Next Day → ]
[ °C ]   °F
Weather ElementAverageHighLow
Temperature20 °F33.1 °F (2:53 pm)10.4 °F (6:32 am)
Dewpoint16 °F21.9 °F (1:53 pm)8.6 °F (6:32 am)
Humidity85.1 %100 % (4:56 am)64 % (10:35 am)
Barometer30.34 in30.49 in (9:53 am)30.21 in (5:16 am)
Wind Speed4.6 mph9.2 mph (3:53 am)
Weather ElementAverage
Visibility5 mi
Wind DirectionE (90.3 °)

Weather ElementTotal
Precipitation---
Heating Degree Days43.3 (Base 65)
Averaged from 39 records on January 31, 2013
WEATHER CONDITIONS BREAKOUT
WIND DIRECTION BREAKOUT
WEATHER BY HOUR - JANUARY 31, 2013
[ °C ]   °F
Local TimeTemperatureDewpointHumidityBarometerVisibilityWind DirectionWind SpeedGust SpeedPrecipitationEventsConditions
1:53 AM21.0 °F18.0 °F88 %30.31 in10.0 miVariable5.8 mphOvercast
2:53 AM19.9 °F18.0 °F92 %30.34 in4.0 miCalm0.00 inSnowLight Snow
3:53 AM17.1 °F14.0 °F88 %30.35 in10.0 miWest (270°)9.2 mph0.00 inMostly Cloudy
4:09 AM19.4 °F17.6 °F93 %30.22 in2.5 miWest (270°)5.8 mphOvercast
4:21 AM19.4 °F17.6 °F93 %30.22 in2.5 miCalmOvercast
4:29 AM17.6 °F14.0 °F86 %30.22 in2.5 miVariable4.6 mphMostly Cloudy
4:39 AM15.8 °F14.0 °F93 %30.22 in5.0 miVariable4.6 mphMostly Cloudy
4:44 AM15.8 °F14.0 °F93 %30.22 in1.5 miVariable5.8 mphOvercast
4:47 AM15.8 °F12.2 °F86 %30.22 in0.8 miSouth (190°)6.9 mphOvercast
4:53 AM16.0 °F14.0 °F92 %30.38 in0.2 miSW (220°)6.9 mphFogLight Freezing Fog
4:56 AM15.8 °F15.8 °F100 %30.23 in0.2 miSW (230°)5.8 mphFogLight Freezing Fog
5:04 AM15.8 °F14.0 °F93 %30.23 in0.5 miSSW (210°)8.1 mphFogLight Freezing Fog
5:06 AM15.8 °F12.2 °F86 %30.23 in1.2 miSSW (200°)8.1 mphMostly Cloudy
5:08 AM14.0 °F12.2 °F93 %30.22 in4.0 miSSW (200°)6.9 mphMostly Cloudy
5:16 AM12.2 °F10.4 °F92 %30.21 in9.0 miVariable5.8 mphScattered Clouds
5:53 AM12.0 °F10.0 °F92 %30.39 in8.0 miVariable4.6 mphClear
6:32 AM10.4 °F8.6 °F92 %30.25 in3.0 miVariable5.8 mphScattered Clouds
6:35 AM12.2 °F8.6 °F85 %30.25 in2.0 miVariable5.8 mphMostly Cloudy
6:38 AM12.2 °F10.4 °F92 %30.25 in1.0 miVariable4.6 mphMist
6:45 AM14.0 °F12.2 °F93 %30.26 in0.2 miWest (260°)5.8 mphFogLight Freezing Fog
6:53 AM12.9 °F10.9 °F92 %30.43 in0.2 miVariable5.8 mphFogLight Freezing Fog
7:53 AM18.0 °F14.0 °F84 %30.45 in0.2 miSouth (180°)5.8 mphFogLight Freezing Fog
8:53 AM19.9 °F15.1 °F81 %30.47 in0.2 miSW (220°)5.8 mphHaze
9:53 AM23.0 °F18.0 °F81 %30.49 in0.2 miSouth (180°)6.9 mphHaze
10:19 AM24.8 °F17.6 °F74 %30.36 in1.2 miSouth (180°)6.9 mphHaze
10:22 AM24.8 °F17.6 °F74 %30.36 in4.0 miSouth (190°)6.9 mphHaze
10:35 AM26.6 °F15.8 °F64 %30.36 in10.0 miCalmScattered Clouds
10:53 AM26.1 °F16.0 °F66 %30.48 in8.0 miVariable3.5 mphClear
11:53 AM23.0 °F19.0 °F85 %30.48 in6.0 miCalmClear
12:53 PM26.1 °F21.0 °F81 %30.43 in9.0 miCalmClear
1:53 PM28.9 °F21.9 °F75 %30.38 in10.0 miCalmClear
2:53 PM33.1 °F21.9 °F64 %30.34 in10.0 miCalmClear
3:53 PM32.0 °F21.9 °F66 %30.36 in10.0 miCalmClear
5:53 PM27.0 °F21.9 °F81 %30.41 in10.0 miSE (130°)4.6 mphMostly Cloudy
6:53 PM26.1 °F21.0 °F81 %30.44 in10.0 miCalmMostly Cloudy
7:53 PM26.1 °F21.9 °F84 %30.42 in10.0 miCalmOvercast
8:53 PM21.9 °F19.0 °F89 %30.43 in10.0 miSouth (190°)8.1 mphMostly Cloudy
10:53 PM23.0 °F19.9 °F88 %30.39 in10.0 miVariable4.6 mphOvercast
11:53 PM23.0 °F19.9 °F88 %30.39 in7.0 miSSW (200°)9.2 mphOvercast
Hourly data recorded from KRIL, located miles away from Molina, Colorado







STORIES FROM OUR PARTNERS